EW5139 Weather Reports


time (UTC)temp
F
wind
direction
speed
knots
gust
knots
rain 1hr
in
rain 24hr
in
rain mn
in
humidity
%
barometer
mb
20260507103908 39 294 0.0 0.0 0.00 0.00 0.00 93 1015.9
20260507103407 39 294 0.0 0.0 0.00 0.00 0.00 93 1015.8
20260507102907 39 294 0.0 0.0 0.00 0.00 0.00 93 1015.8
20260507102406 39 294 0.0 0.0 0.00 0.00 0.00 94 1015.9
20260507101907 39 294 0.0 0.0 0.00 0.00 0.00 94 1015.8
20260507101407 39 293 0.0 0.0 0.00 0.00 0.00 94 1015.8
20260507100907 38 293 0.0 0.0 0.00 0.00 0.00 94 1015.7
20260507100407 38 293 0.0 0.0 0.00 0.00 0.00 93 1015.7
20260507095907 38 293 0.0 0.0 0.00 0.00 0.00 93 1015.7
20260507095407 38 293 0.0 0.0 0.00 0.00 0.00 93 1015.7
20260507094906 39 293 0.0 0.0 0.00 0.00 0.00 93 1015.7
20260507094406 39 293 0.0 0.0 0.00 0.00 0.00 93 1015.8
20260507093907 39 293 0.0 0.0 0.00 0.00 0.00 93 1015.8
20260507093407 39 293 0.0 0.0 0.00 0.00 0.00 93 1015.7
20260507092906 39 293 0.0 0.0 0.00 0.00 0.00 93 1015.6
20260507092407 40 293 0.0 0.0 0.00 0.00 0.00 93 1015.5
20260507091907 40 293 0.0 0.0 0.00 0.00 0.00 93 1015.5
20260507091407 40 293 0.0 0.0 0.00 0.00 0.00 92 1015.4
20260507090907 40 293 0.0 0.0 0.00 0.00 0.00 92 1015.3
20260507090407 40 293 0.0 0.0 0.00 0.00 0.00 92 1015.3
20260507085907 40 293 0.0 0.0 0.00 0.00 0.00 91 1015.3
20260507084407 41 293 0.0 0.0 0.00 0.00 0.00 91 1015.2
20260507083907 41 293 0.0 0.0 0.00 0.00 0.00 91 1015.3
20260507083407 41 293 0.0 0.0 0.00 0.00 0.00 91 1015.2
20260507082906 41 293 0.0 0.9 0.00 0.00 0.00 90 1015.2
20260507082407 41 282 0.0 0.0 0.00 0.00 0.00 90 1015.2
20260507081906 41 282 0.0 0.0 0.00 0.00 0.00 89 1015.2
20260507081407 42 282 0.0 0.0 0.00 0.00 0.00 89 1015.2
20260507080407 42 282 0.0 0.9 0.00 0.01 0.00 90 1015.1
20260507075906 42 347 0.0 0.0 0.00 0.01 0.00 90 1015.1
20260507075406 42 286 0.0 0.0 0.00 0.01 0.00 90 1015.1
20260507074407 42 271 0.0 0.0 0.00 0.03 0.00 89 1015.1
20260507073907 43 271 0.0 0.0 0.00 0.03 0.00 89 1015.2
20260507073407 43 271 0.0 0.0 0.00 0.05 0.00 89 1015.1
20260507072907 43 271 0.0 0.0 0.00 0.06 0.00 90 1015.1
20260507071906 43 271 0.0 0.0 0.00 0.07 0.00 90 1015.1
20260507071407 43 271 0.0 0.0 0.00 0.07 0.00 90 1015.1
20260507070906 43 271 0.0 0.0 0.00 0.09 0.00 91 1015.2
20260507070406 43 271 0.0 0.0 0.00 0.11 0.00 91 1015.1
20260507065907 43 271 0.0 0.0 0.00 0.13 0.00 91 1015.1
20260507065407 43 271 0.0 0.0 0.00 0.15 0.00 91 1015.2
20260507064907 43 271 0.0 0.0 0.00 0.17 0.00 91 1015.2
20260507064406 43 271 0.0 0.0 0.00 0.17 0.00 91 1015.3
20260507063907 43 271 0.0 0.0 0.00 0.18 0.00 91 1015.4
20260507063406 44 271 0.0 0.0 0.00 0.18 0.00 91 1015.4
20260507062406 44 271 0.0 0.0 0.00 0.18 0.00 91 1015.4
20260507061906 44 271 0.0 0.0 0.00 0.18 0.00 91 1015.3
20260507061406 44 271 0.0 0.0 0.00 0.19 0.00 91 1015.3
20260507060906 44 271 0.0 0.0 0.00 0.19 0.00 92 1015.3
20260507060406 44 271 0.0 0.0 0.00 0.20 0.00 92 1015.4
20260507055906 44 271 0.0 0.0 0.00 0.22 0.00 92 1015.4
20260507055407 44 271 0.0 0.0 0.00 0.23 0.00 92 1015.4
20260507054406 45 271 0.0 0.0 0.00 0.24 0.00 91 1015.5
20260507053907 45 271 0.0 0.0 0.00 0.25 0.00 91 1015.4
20260507053406 45 271 0.0 0.0 0.00 0.26 0.00 91 1015.5
20260507052906 45 271 0.0 0.0 0.00 0.28 0.00 91 1015.4
20260507052407 45 12 0.0 0.0 0.00 0.28 0.00 91 1015.3
20260507051906 45 12 0.0 0.9 0.00 0.30 0.00 91 1015.3
20260507051406 45 12 0.0 0.9 0.00 0.31 0.00 90 1015.4
20260507050406 45 12 0.0 0.0 0.00 0.38 0.00 90 1015.5
20260507045906 45 12 0.0 0.0 0.00 0.39 0.00 89 1015.6
20260507045406 45 12 0.0 0.0 0.00 0.42 0.00 88 1015.6
20260507044906 45 12 0.0 0.0 0.00 0.45 0.00 87 1015.6
20260507044406 45 12 0.0 0.0 0.00 0.50 0.00 87 1015.6
20260507043907 46 12 0.0 0.0 0.00 0.51 0.00 86 1015.5
20260507042406 46 12 0.0 0.0 0.00 0.55 0.00 84 1015.3
20260507041406 46 12 0.0 0.0 0.00 0.58 0.00 83 1015.4
20260507040906 46 12 0.0 0.0 0.00 0.62 0.00 82 1015.4
20260507040406 47 12 0.0 0.0 0.00 0.66 0.00 81 1015.4
20260507035906 47 12 0.0 0.0 0.00 0.68 0.68 81 1015.4
20260507035406 47 12 0.0 0.0 0.00 0.69 0.68 81 1015.3
20260507034906 47 12 0.0 0.0 0.00 0.70 0.68 80 1015.4
20260507034406 47 12 0.0 0.0 0.00 0.71 0.68 81 1015.4
20260507033906 47 12 0.0 0.0 0.00 0.72 0.68 82 1015.4
20260507033406 47 12 0.0 0.0 0.00 0.72 0.68 81 1015.4
20260507032406 47 12 0.0 0.0 0.00 0.72 0.68 81 1015.3
20260507031906 47 12 0.0 0.0 0.00 0.72 0.68 81 1015.4
20260507030907 47 12 0.0 0.0 0.00 0.72 0.68 81 1015.4
20260507030406 48 12 0.0 0.0 0.00 0.72 0.68 81 1015.5
20260507025906 48 12 0.0 0.0 0.00 0.74 0.68 80 1015.5
20260507025405 48 12 0.0 0.0 0.00 0.74 0.68 80 1015.5
20260507024406 48 12 0.0 0.0 0.00 0.76 0.68 80 1015.5
20260507023906 48 12 0.0 0.0 0.00 0.76 0.68 79 1015.4
20260507023405 48 12 0.0 0.0 0.00 0.77 0.68 79 1015.5
20260507022906 49 12 0.0 0.0 0.00 0.78 0.68 78 1015.4
20260507022405 49 12 0.0 0.0 0.00 0.80 0.68 79 1015.4
20260507021906 49 12 0.0 0.0 0.00 0.81 0.68 78 1015.5
20260507021406 49 12 0.0 0.0 0.00 0.81 0.68 78 1015.3
20260507020906 49 12 0.0 0.0 0.00 0.81 0.68 79 1015.2
20260507020405 49 12 0.0 0.0 0.00 0.82 0.68 78 1015.2
20260507015906 49 12 0.0 0.0 0.00 0.84 0.68 78 1015.1
20260507013905 49 12 0.0 0.0 0.00 0.88 0.68 77 1015.0
20260507013405 49 12 0.0 0.0 0.00 0.88 0.68 77 1014.8
20260507012906 49 12 0.0 0.0 0.00 0.88 0.68 77 1014.8
20260507012405 49 12 0.0 0.0 0.00 0.88 0.68 77 1014.8
20260507011905 50 12 0.0 0.0 0.00 0.88 0.68 76 1014.6
20260507011405 50 12 0.0 0.0 0.00 0.89 0.68 76 1014.7
20260507010905 50 12 0.0 0.0 0.00 0.90 0.68 76 1014.7
20260507010405 51 12 0.0 0.0 0.00 0.92 0.68 75 1014.7
20260507005406 51 12 0.0 0.0 0.00 0.98 0.68 74 1014.8
20260507004905 52 12 0.0 0.0 0.00 1.00 0.68 73 1014.7
20260507004406 52 12 0.0 0.0 0.00 1.02 0.68 72 1014.8
20260507003406 53 12 0.0 0.0 0.00 1.02 0.68 70 1014.6
20260507002905 54 12 0.0 0.0 0.00 1.02 0.68 68 1014.5
20260507002405 54 12 0.0 0.0 0.00 1.03 0.68 67 1014.5
20260507001905 54 12 0.0 0.0 0.00 1.03 0.68 67 1014.4
20260507001405 54 12 0.0 0.0 0.00 1.04 0.68 65 1014.3
20260507000905 55 12 0.0 0.0 0.00 1.04 0.68 64 1014.2
20260507000406 55 13 0.0 1.7 0.00 1.04 0.68 64 1014.2
20260506235905 55 330 0.0 0.9 0.00 1.05 0.68 64 1014.3
20260506235406 55 335 0.0 1.7 0.00 1.05 0.68 63 1014.1
20260506234905 55 351 0.9 2.6 0.00 1.06 0.68 61 1014.1
20260506234405 56 356 0.9 2.6 0.00 1.06 0.68 62 1014.2
20260506233405 56 341 0.9 2.6 0.00 1.06 0.68 60 1014.1
20260506232905 57 318 1.7 4.3 0.00 1.07 0.68 59 1014.1
20260506231405 58 335 0.9 2.6 0.00 1.08 0.68 59 1013.8
20260506230905 58 352 0.9 2.6 0.00 1.08 0.68 59 1013.9
20260506230405 58 332 1.7 2.6 0.00 1.08 0.68 60 1013.9
20260506225905 58 355 0.9 2.6 0.00 1.08 0.68 60 1013.9
20260506225405 57 348 1.7 6.1 0.00 1.08 0.68 59 1014.1
20260506224905 57 334 2.6 6.1 0.00 1.08 0.68 60 1014.0
20260506224405 57 18 0.9 2.6 0.00 1.08 0.68 61 1014.0
20260506223905 57 4 0.9 4.3 0.00 1.08 0.68 61 1014.0
20260506223405 57 327 0.9 2.6 0.00 1.08 0.68 61 1014.2
20260506222405 57 351 0.9 2.6 0.00 1.08 0.68 60 1014.2
20260506221905 57 344 0.9 2.6 0.00 1.08 0.68 60 1014.2
20260506221405 57 344 0.0 2.6 0.00 1.08 0.68 59 1014.3
20260506220405 57 344 0.9 2.6 0.00 1.09 0.68 56 1014.4
20260506215405 57 323 0.9 2.6 0.00 1.09 0.68 58 1014.3
20260506214905 57 311 1.7 2.6 0.00 1.09 0.68 59 1014.4
20260506214404 57 354 0.9 2.6 0.00 1.10 0.68 59 1014.3
20260506213405 57 339 1.7 4.3 0.00 1.10 0.68 58 1014.3
20260506212905 57 343 0.9 2.6 0.00 1.11 0.68 58 1014.2
20260506212405 57 327 0.9 4.3 0.00 1.12 0.68 59 1014.2
20260506211905 57 340 2.6 6.1 0.00 1.12 0.68 57 1014.1
20260506211405 58 326 0.9 2.6 0.00 1.12 0.68 59 1013.9
20260506210905 58 328 1.7 4.3 0.00 1.13 0.68 58 1013.9
20260506205905 57 335 0.9 2.6 0.00 1.13 0.68 59 1013.8
20260506205405 57 335 1.7 4.3 0.00 1.13 0.68 58 1013.8
20260506204405 57 354 0.9 4.3 0.00 1.13 0.68 58 1013.8
20260506203405 58 45 0.9 2.6 0.00 1.13 0.68 60 1014.0
20260506202904 57 332 0.9 2.6 0.00 1.13 0.68 60 1013.9
20260506202405 57 330 0.9 4.3 0.00 1.14 0.68 58 1013.9
20260506201904 57 21 1.7 2.6 0.00 1.14 0.68 60 1013.9
20260506201404 58 20 0.0 2.6 0.00 1.14 0.68 59 1013.8
20260506200905 57 313 0.0 2.6 0.00 1.15 0.68 59 1013.9
20260506194905 58 357 1.7 2.6 0.00 1.17 0.68 57 1013.8
20260506194404 58 335 0.9 2.6 0.00 1.18 0.68 58 1013.8
20260506193905 58 344 2.6 7.0 0.00 1.19 0.68 56 1013.8
20260506193404 58 332 1.7 7.0 0.00 1.26 0.68 57 1013.5
20260506192404 59 339 2.6 6.1 0.00 1.41 0.68 54 1013.5
20260506191905 59 306 0.9 4.3 0.00 1.45 0.68 56 1013.5
20260506191404 59 350 1.7 5.2 0.00 1.47 0.68 56 1013.5
20260506190904 59 333 1.7 4.3 0.00 1.47 0.68 58 1013.5
20260506190404 59 4 2.6 5.2 0.00 1.47 0.68 57 1013.5
20260506185905 59 356 3.5 7.0 0.00 1.47 0.68 56 1013.4
20260506185404 59 4 1.7 5.2 0.00 1.47 0.68 57 1013.4
20260506184905 59 338 3.5 6.1 0.00 1.47 0.68 57 1013.5
20260506184404 60 291 1.7 4.3 0.00 1.47 0.68 57 1013.4
20260506183905 60 350 1.7 4.3 0.00 1.47 0.68 56 1013.3
20260506183404 60 339 1.7 5.2 0.00 1.47 0.68 56 1013.2
20260506182405 61 62 0.0 2.6 0.00 1.47 0.68 59 1013.3
20260506181404 60 33 1.7 2.6 0.00 1.47 0.68 58 1013.3
20260506180404 60 325 0.9 2.6 0.00 1.47 0.68 60 1013.5
20260506175904 60 10 2.6 7.8 0.00 1.47 0.68 58 1013.4
20260506175404 60 101 1.7 2.6 0.00 1.47 0.68 59 1013.5
20260506174405 60 293 1.7 7.0 0.00 1.47 0.68 59 1013.7
20260506173404 59 225 0.9 2.6 0.00 1.47 0.68 60 1013.8
20260506172404 59 345 1.7 5.2 0.00 1.47 0.68 59 1013.5
20260506171904 59 313 2.6 7.0 0.00 1.47 0.68 57 1013.6
20260506170904 58 286 0.9 8.7 0.00 1.47 0.68 65 1013.8
20260506170404 58 0 0.9 7.0 0.00 1.47 0.68 61 1013.8
20260506164904 57 346 1.7 6.1 0.00 1.47 0.68 62 1014.0
20260506164405 57 341 0.9 6.1 0.00 1.47 0.68 62 1013.9
20260506163904 57 323 1.7 5.2 0.00 1.47 0.68 63 1013.8
20260506163404 56 311 1.7 7.0 0.00 1.47 0.68 62 1013.9
20260506162904 56 326 1.7 6.1 0.00 1.47 0.68 63 1014.0
20260506162404 56 268 0.9 5.2 0.00 1.47 0.68 65 1013.9
20260506161404 56 316 2.6 7.0 0.00 1.47 0.68 64 1013.8
20260506160404 56 262 0.9 2.6 0.00 1.47 0.68 67 1013.7
20260506155903 56 339 1.7 8.7 0.00 1.47 0.68 68 1013.7
20260506155405 56 349 1.7 2.6 0.00 1.47 0.68 67 1013.6
20260506154404 55 356 0.9 4.3 0.00 1.47 0.68 65 1013.5
20260506153404 54 2 0.9 4.3 0.00 1.47 0.68 66 1013.8
20260506152904 55 340 1.7 5.2 0.00 1.47 0.68 67 1013.9
20260506152404 55 345 1.7 4.3 0.00 1.47 0.68 67 1014.0
20260506151904 54 20 0.9 2.6 0.00 1.47 0.68 71 1014.0
20260506151404 54 339 0.9 4.3 0.00 1.47 0.68 69 1013.7
20260506150904 54 337 0.0 1.7 0.00 1.47 0.68 72 1013.4
20260506145404 52 320 1.7 7.0 0.00 1.47 0.68 70 1013.1
20260506144904 52 353 0.9 4.3 0.00 1.47 0.68 75 1012.9
20260506144404 52 321 0.9 4.3 0.00 1.47 0.68 76 1012.8
20260506143904 51 350 1.7 7.0 0.00 1.47 0.68 77 1012.7
20260506143404 50 341 1.7 4.3 0.00 1.47 0.68 79 1012.6
20260506142904 50 352 2.6 7.0 0.00 1.47 0.68 81 1012.6
20260506142403 50 347 1.7 4.3 0.00 1.47 0.68 81 1012.4
20260506141403 50 9 0.9 2.6 0.00 1.47 0.68 83 1012.8
20260506140903 49 327 1.7 4.3 0.00 1.47 0.68 84 1012.7
20260506140404 49 4 1.7 4.3 0.00 1.47 0.68 85 1012.6
20260506135903 48 313 2.6 7.0 0.00 1.47 0.68 85 1012.5
20260506135404 48 328 2.6 4.3 0.00 1.47 0.68 85 1012.5
20260506134908 48 328 2.6 6.1 0.00 1.47 0.68 86 1012.4
20260506134408 48 344 0.9 5.2 0.00 1.47 0.68 86 1012.5
20260506133907 48 323 0.9 1.7 0.00 1.47 0.68 88 1012.5
20260506133408 47 343 1.7 4.3 0.00 1.47 0.68 87 1012.5
20260506132907 47 17 0.9 6.1 0.00 1.47 0.68 87 1012.4
20260506132408 47 339 2.6 5.2 0.00 1.47 0.68 88 1012.5
20260506131908 47 336 0.0 1.7 0.00 1.47 0.68 90 1012.2
20260506131407 46 346 0.9 2.6 0.00 1.47 0.68 90 1012.2
20260506130908 46 339 0.0 2.6 0.00 1.47 0.68 90 1012.2
20260506130407 46 345 1.7 5.2 0.00 1.47 0.68 90 1012.5
20260506125907 46 345 0.9 2.6 0.00 1.47 0.68 92 1012.5
20260506125408 46 326 0.9 2.6 0.00 1.47 0.68 92 1012.4
20260506124907 46 329 0.0 2.6 0.00 1.47 0.68 93 1012.2
20260506124408 45 332 1.7 4.3 0.00 1.47 0.68 93 1011.9
20260506123908 45 336 1.7 5.2 0.00 1.47 0.68 94 1011.9
20260506123408 45 334 0.0 2.6 0.00 1.47 0.68 96 1011.8
20260506122907 45 334 1.7 2.6 0.00 1.47 0.68 96 1011.8
20260506122407 45 358 0.9 2.6 0.00 1.47 0.68 96 1011.7
20260506121907 44 347 0.9 2.6 0.00 1.47 0.68 96 1011.7
20260506121408 44 340 0.9 6.1 0.00 1.47 0.68 97 1011.6
20260506120907 44 337 0.9 2.6 0.00 1.47 0.68 97 1011.5
20260506120407 44 4 0.9 2.6 0.00 1.47 0.68 97 1011.2
20260506115907 44 344 0.0 1.7 0.00 1.47 0.68 97 1011.3
20260506114908 43 337 1.7 2.6 0.00 1.47 0.68 97 1011.1
20260506114407 43 311 0.0 1.7 0.00 1.47 0.68 97 1010.8
20260506113907 43 340 0.0 2.6 0.00 1.48 0.68 97 1010.7
20260506113407 43 178 0.0 0.0 0.00 1.48 0.68 97 1010.6
20260506112908 43 173 0.9 2.6 0.00 1.49 0.68 97 1010.6
20260506112407 43 338 0.9 2.6 0.00 1.49 0.68 97 1010.5
20260506111907 43 345 0.9 4.3 0.00 1.49 0.68 97 1010.3
20260506110907 43 317 0.9 2.6 0.00 1.49 0.68 97 1010.4
20260506110407 43 28 1.7 6.1 0.00 1.49 0.68 97 1010.5
20260506105907 43 331 1.7 2.6 0.00 1.49 0.68 98 1010.6
20260506105407 43 334 1.7 4.3 0.00 1.49 0.68 97 1010.3
20260506104407 43 334 0.0 0.9 0.00 1.49 0.68 98 1009.6